Terminal Aerodrome Forecast
Issued by NWS Milwaukee/Sullivan, WI

Home | Current Version | Previous Version | Text Only | Print | Product List | Glossary On
Versions: 1 2 3 4 5 6 7 8 9 10 11 12 13 14 15 16 17 18 19 20 21 22 23 24 25 26 27 28 29 30 31 32 33 34 35 36 37 38 39 40 41 42 43
000
FTUS43 KMKX 172320
TAFMKE
TAF
KMKE 172320Z 1800/1906 22012KT P6SM SKC WS020/23030KT
     FM180800 22008KT P6SM SKC WS020/24035KT
     FM181300 21013KT P6SM SKC
     FM181600 20014G23KT P6SM SKC
     FM182200 21015KT P6SM FEW250
     FM190000 21012KT P6SM FEW250 WS020/22040KT=

USA.gov is the U.S. government's official web portal to all federal, state and local government web resources and services.